Weather History for Waseca, MN

Change the Weather History Date:

Monday, November 12, 2012

  Actual Average Record
Temperature  
Mean Temperature 24 °F -  
Max Temperature 28 °F 39 °F 65 °F (1952)
Min Temperature 19 °F 22 °F -7 °F (1966)
Degree Days  
Heating Degree Days 42    
Moisture  
Dew Point 16 °F    
Average Humidity 70    
Maximum Humidity 80    
Minimum Humidity 59    
Precipitation  
Precipitation 0.00 in - - ()
Sea Level Pressure  
Sea Level Pressure 30.12 in    
Wind  
Wind Speed 14 mph (WSW)    
Max Wind Speed 22 mph    
Max Gust Speed 28 mph    
Visibility 9 miles    
Events Snow    
Averages and records for this station are not official NWS values.
T = Trace of Precipitation, MM = Missing Value Source: NWS Daily Summary

Daily Weather History Graph

Daily Weather History Graph

Search for Another Location

Airport:

Trip Planner

Search our weather history database for the weather conditions in past years. The results will help you decide how hot, cold, wet, or windy it might be!

Date:

Astronomy

Nov. 12, 2012 Rise Set
Actual Time 7:06 AM CST 4:50 PM CST
Civil Twilight 6:35 AM CST 5:21 PM CST
Nautical Twilight 6:00 AM CST 5:56 PM CST
Astronomical Twilight 5:26 AM CST 6:30 PM CST
Moon 5:30 AM CST (11/12) 3:56 PM CST (11/12)
Length of Visible Light 10h 46m
Length of Day
9h 44m
Waning Crescent, 2% of the Moon is Illuminated
Nov 12
Waning Crescent
Nov 13
New
Nov 20
First Quarter
Nov 28
Full
Dec 6
Last Quarter

Hourly Weather History & Observations

Time (CST) Temp. Windchill Dew Point Humidity Pressure Visibility Wind Dir Wind Speed Gust Speed Precip Events Conditions
12:53 AM 24.8 °F 12.4 °F 14.0 °F 64% 29.99 in 10.0 mi West 15.0 mph 21.9 mph N/A Snow Light Snow
1:13 AM 24.8 °F 10.0 °F 14.0 °F 64% 29.99 in 10.0 mi West 21.9 mph - N/A Snow Light Snow
1:53 AM 24.8 °F 11.9 °F 15.8 °F 69% 29.99 in 10.0 mi West 16.1 mph 20.7 mph N/A   Mostly Cloudy
2:13 AM 24.8 °F 10.3 °F 14.0 °F 64% 29.99 in 10.0 mi WSW 20.7 mph 24.2 mph N/A   Overcast
2:33 AM 23.0 °F 10.1 °F 12.2 °F 63% 29.99 in 10.0 mi West 15.0 mph - N/A   Mostly Cloudy
3:13 AM 23.0 °F 11.1 °F 12.2 °F 63% 29.99 in 10.0 mi WSW 12.7 mph - N/A   Clear
3:33 AM 23.0 °F 11.1 °F 14.0 °F 68% 29.99 in 10.0 mi WSW 12.7 mph - N/A   Scattered Clouds
3:53 AM 23.0 °F 10.6 °F 14.0 °F 68% 30.00 in 10.0 mi WSW 13.8 mph 18.4 mph N/A   Clear
4:13 AM 23.0 °F 12.4 °F 14.0 °F 68% 30.00 in 10.0 mi WSW 10.4 mph - N/A   Clear
4:33 AM 23.0 °F 11.7 °F 14.0 °F 68% 30.00 in 10.0 mi WSW 11.5 mph 17.3 mph N/A   Clear
4:53 AM 23.0 °F 12.4 °F 14.0 °F 68% 30.00 in 10.0 mi SW 10.4 mph - N/A   Mostly Cloudy
5:13 AM 23.0 °F 12.4 °F 14.0 °F 68% 30.00 in 10.0 mi SW 10.4 mph - N/A   Overcast
5:33 AM 23.0 °F 11.1 °F 14.0 °F 68% 30.00 in 10.0 mi SW 12.7 mph - N/A   Mostly Cloudy
5:52 AM 23.0 °F 11.1 °F 14.0 °F 68% 30.00 in 10.0 mi WSW 12.7 mph - N/A   Mostly Cloudy
6:13 AM 23.0 °F 9.6 °F 15.8 °F 74% 30.00 in 10.0 mi WSW 16.1 mph - N/A   Overcast
6:33 AM 23.0 °F 10.1 °F 15.8 °F 74% 30.00 in 4.0 mi SW 15.0 mph - N/A Snow Light Snow
6:53 AM 23.0 °F 9.6 °F 15.8 °F 74% 30.01 in 5.0 mi SW 16.1 mph - N/A   Haze
7:13 AM 23.0 °F 10.6 °F 17.6 °F 80% 30.01 in 4.0 mi WSW 13.8 mph - N/A Snow Light Snow
7:33 AM 23.0 °F 9.6 °F 17.6 °F 80% 30.01 in 3.0 mi WSW 16.1 mph - N/A Snow Light Snow
7:52 AM 24.8 °F 12.9 °F 19.4 °F 80% 30.02 in 3.0 mi SW 13.8 mph 20.7 mph N/A Snow Light Snow
8:13 AM 24.8 °F 12.9 °F 19.4 °F 80% 30.03 in 2.0 mi WSW 13.8 mph - N/A Snow Light Snow
8:33 AM 24.8 °F 11.5 °F 19.4 °F 80% 30.03 in 2.5 mi WSW 17.3 mph - N/A Snow Light Snow
8:53 AM 24.8 °F 12.9 °F 19.4 °F 80% 30.04 in 1.8 mi WSW 13.8 mph 20.7 mph N/A Snow Light Snow
9:13 AM 24.8 °F 12.4 °F 19.4 °F 80% 30.04 in 0.8 mi West 15.0 mph 19.6 mph N/A Snow Light Snow
9:33 AM 24.8 °F 13.4 °F 19.4 °F 80% 30.05 in 10.0 mi West 12.7 mph - N/A   Overcast
9:53 AM 26.6 °F 14.7 °F 17.6 °F 69% 30.05 in 10.0 mi West 15.0 mph 20.7 mph N/A   Overcast
10:13 AM 26.6 °F 13.8 °F 15.8 °F 64% 30.06 in 10.0 mi West 17.3 mph 27.6 mph N/A   Overcast
10:33 AM 26.6 °F 13.4 °F 15.8 °F 64% 30.07 in 7.0 mi West 18.4 mph 24.2 mph N/A Snow Light Snow
10:53 AM 26.6 °F 13.1 °F 15.8 °F 64% 30.07 in 5.0 mi West 19.6 mph 25.3 mph N/A Snow Light Snow
11:13 AM 26.6 °F 12.7 °F 15.8 °F 64% 30.08 in 5.0 mi West 20.7 mph 25.3 mph N/A Snow Light Snow
11:33 AM 26.6 °F 12.7 °F 17.6 °F 69% 30.08 in 7.0 mi West 20.7 mph 25.3 mph N/A Snow Light Snow
11:53 AM 26.6 °F 13.4 °F 15.8 °F 64% 30.08 in 7.0 mi West 18.4 mph 25.3 mph N/A Snow Light Snow
12:33 PM 26.6 °F 13.8 °F 15.8 °F 64% 30.10 in 10.0 mi West 17.3 mph - N/A   Overcast
12:53 PM 26.6 °F 13.1 °F 15.8 °F 64% 30.10 in 10.0 mi West 19.6 mph 24.2 mph N/A Snow Light Snow
1:13 PM 28.4 °F 15.4 °F 15.8 °F 59% 30.10 in 10.0 mi West 19.6 mph 24.2 mph N/A   Overcast
1:33 PM 26.6 °F 13.4 °F 15.8 °F 64% 30.11 in 10.0 mi West 18.4 mph - N/A   Mostly Cloudy
1:53 PM 28.4 °F 16.6 °F 15.8 °F 59% 30.11 in 10.0 mi West 16.1 mph - N/A   Mostly Cloudy
2:13 PM 28.4 °F 16.6 °F 15.8 °F 59% 30.12 in 10.0 mi West 16.1 mph 27.6 mph N/A   Mostly Cloudy
2:33 PM 28.4 °F 15.8 °F 15.8 °F 59% 30.13 in 10.0 mi West 18.4 mph - N/A   Mostly Cloudy
2:53 PM 28.4 °F 14.7 °F 15.8 °F 59% 30.14 in 10.0 mi West 21.9 mph 25.3 mph N/A   Overcast
3:13 PM 28.4 °F 16.2 °F 15.8 °F 59% 30.15 in 10.0 mi West 17.3 mph - N/A   Overcast
3:32 PM 28.4 °F 18.0 °F 15.8 °F 59% 30.16 in 10.0 mi West 12.7 mph - N/A   Overcast
3:53 PM 28.4 °F 16.2 °F 15.8 °F 59% 30.16 in 10.0 mi WNW 17.3 mph - N/A   Mostly Cloudy
4:33 PM 28.4 °F 18.5 °F 15.8 °F 59% 30.19 in 10.0 mi West 11.5 mph - N/A   Scattered Clouds
4:53 PM 28.4 °F 18.5 °F 15.8 °F 59% 30.19 in 10.0 mi West 11.5 mph - N/A   Mostly Cloudy
5:13 PM 26.6 °F 16.2 °F 15.8 °F 64% 30.20 in 10.0 mi West 11.5 mph - N/A   Scattered Clouds
5:33 PM 26.6 °F 16.8 °F 15.8 °F 64% 30.21 in 10.0 mi West 10.4 mph - N/A   Scattered Clouds
5:53 PM 24.8 °F 16.1 °F 15.8 °F 69% 30.22 in 10.0 mi West 8.1 mph - N/A   Clear
6:13 PM 24.8 °F 16.1 °F 17.6 °F 74% 30.22 in 10.0 mi West 8.1 mph - N/A   Clear
6:53 PM 23.0 °F 15.8 °F 15.8 °F 74% 30.23 in 10.0 mi WSW 5.8 mph - N/A   Clear
7:13 PM 23.0 °F 13.9 °F 15.8 °F 74% 30.24 in 10.0 mi West 8.1 mph - N/A   Clear
7:34 PM 23.0 °F 13.9 °F 15.8 °F 74% 30.25 in 10.0 mi WSW 8.1 mph - N/A   Clear
7:53 PM 21.2 °F 13.6 °F 14.0 °F 74% 30.25 in 10.0 mi WSW 5.8 mph - N/A   Clear
8:13 PM 21.2 °F 13.6 °F 14.0 °F 74% 30.26 in 10.0 mi SW 5.8 mph - N/A   Clear
8:34 PM 21.2 °F 13.6 °F 14.0 °F 74% 30.27 in 10.0 mi SW 5.8 mph - N/A   Clear
8:53 PM 21.2 °F 12.6 °F 14.0 °F 74% 30.27 in 10.0 mi SW 6.9 mph - N/A   Clear
9:13 PM 23.0 °F 14.7 °F 15.8 °F 74% 30.28 in 10.0 mi SW 6.9 mph - N/A   Clear
9:34 PM 21.2 °F 13.6 °F 14.0 °F 74% 30.29 in 10.0 mi SW 5.8 mph - N/A   Clear
9:53 PM 21.2 °F 12.6 °F 14.0 °F 74% 30.29 in 10.0 mi SW 6.9 mph - N/A   Clear
10:13 PM 21.2 °F 14.9 °F 14.0 °F 74% 30.29 in 10.0 mi WSW 4.6 mph - N/A   Clear
10:33 PM 19.4 °F 11.5 °F 14.0 °F 80% 30.30 in 10.0 mi WSW 5.8 mph - N/A   Clear
10:53 PM 19.4 °F - 14.0 °F 80% 30.31 in 10.0 mi Calm Calm - N/A   Clear
11:13 PM 19.4 °F 14.3 °F 14.0 °F 80% 30.31 in 10.0 mi SW 3.5 mph - N/A   Clear
11:33 PM 19.4 °F 14.3 °F 14.0 °F 80% 30.32 in 10.0 mi SW 3.5 mph - N/A   Clear
11:53 PM 19.4 °F 12.8 °F 14.0 °F 80% 30.32 in 10.0 mi SSW 4.6 mph - N/A   Clear